Wind_Speed
21 21 21 21 21 22 22 22 22 21 20 21 21 20 21 22 21 20 21 21 21 21 21 21 21 22 23 23 22 23 23 22 23 23 23 23 24 23
23 23 23 23 23 23 24 24 24 23 23 22 22 22 22 22 23 22 21 22 22 22 22 23 22 22 23 24 24 24 24 24 24 24 24 24 24 24
25 25 24 24 24 24 25 25 25 25 24 24 23 24 24 23 24 23 23 22 23 23 23 23 23 23 23 24 24 25 25 25 25 25 24 24 25 25
26 26 25 26 25 26 26 26 26 26 25 25 25 25 26 26 25 24 24 24 23 24 24 24 24 24 24 24 24 25 25 26 26 27 27 27 26 26
27 27 28 27 26 26 27 27 27 27 27 27 26 26 26 26 25 26 26 26 25 24 25 25 25 24 25 25 25 26 26 26 27 28 28 28 27 26
29 29 28 28 27 27 27 28 28 28 28 28 28 27 27 27 27 27 27 27 26 26 26 26 26 26 26 26 26 27 27 27 27 27 28 28 28 27
30 30 30 30 30 30 29 28 28 28 28 29 28 28 28 28 27 27 28 28 28 28 28 28 27 27 27 27 27 28 28 28 28 28 28 28 28 28
33 33 33 33 32 32 31 31 30 30 30 30 30 29 28 29 29 29 29 29 29 30 30 29 29 29 28 29 29 29 29 29 29 28 28 28 28 28
33 33 34 34 34 34 33 33 32 32 32 32 32 31 30 31 32 32 31 31 30 30 31 31 29 29 30 29 29 29 29 29 28 29 29 29 28 28
34 34 35 35 35 35 35 34 34 34 34 34 33 33 34 34 34 33 32 32 32 31 32 31 31 31 30 29 29 29 29 29 29 29 30 30 29 28
36 36 37 37 36 36 36 36 35 35 35 35 35 34 34 35 35 35 34 34 34 32 32 32 31 32 32 31 31 30 30 30 31 30 30 29 29 29
37 37 37 37 37 37 38 38 38 37 37 36 35 35 35 34 35 35 36 36 35 34 34 33 33 32 32 31 31 31 31 31 31 30 30 29 29 29
37 37 37 38 38 38 38 39 39 38 37 37 37 36 36 35 35 35 36 36 36 35 34 33 32 32 31 30 30 30 30 30 30 30 29 29 29 29
38 38 38 39 39 38 38 38 38 38 38 38 37 37 36 36 36 35 35 35 35 35 34 32 31 31 30 30 29 29 28 28 28 28 27 28 28 28
38 37 38 39 39 38 38 37 37 38 38 37 37 36 36 36 36 35 35 34 34 33 33 32 31 31 30 29 28 28 27 26 26 26 26 26 26 26
38 37 37 38 38 38 38 38 38 38 38 38 38 37 37 36 35 35 34 34 33 32 32 31 30 30 29 29 28 28 27 27 26 26 26 25 25 26
38 38 37 36 37 37 37 37 37 37 37 38 38 38 37 36 35 34 34 33 32 31 31 30 29 29 28 28 28 28 28 27 26 26 25 25 25 25
37 37 36 35 36 36 35 35 35 36 37 37 37 37 36 36 34 33 33 32 31 30 30 29 28 28 28 27 27 28 28 27 26 25 25 24 24 24
36 36 36 35 35 35 35 35 35 36 36 36 36 35 35 34 34 33 31 31 31 31 30 30 29 28 27 27 27 28 28 27 27 26 25 25 24 24
35 35 34 34 35 34 33 33 34 35 35 35 34 33 33 33 32 32 31 31 31 30 30 29 29 29 29 28 28 28 28 28 27 27 27 26 25 24
35 35 34 34 33 33 33 33 33 33 34 34 34 33 33 32 32 32 32 31 31 31 30 29 29 30 29 29 28 28 29 29 28 28 28 27 26 25
34 34 34 34 33 33 32 32 32 32 32 33 33 33 33 33 32 32 32 31 30 30 30 29 29 29 29 29 29 28 28 28 29 29 28 27 26 26
33 34 34 34 34 34 33 32 32 31 31 31 32 32 32 32 31 30 31 31 31 31 30 30 30 30 29 28 28 28 28 28 28 28 27 27 27 27
Wind_Direction
297 296 296 296 296 295 294 294 292 293 292 292 289 288 289 288 289 289 287 283 284 284 284 284 283 282 281 282 284 284 284 287 287 288 288 289 290 290
297 297 295 296 295 295 293 291 291 290 292 292 289 289 290 291 289 287 285 282 282 283 282 282 282 283 282 282 284 284 284 286 287 287 286 287 288 288
295 296 295 295 295 294 292 289 288 289 291 289 288 288 289 290 288 286 283 282 280 281 280 279 278 280 281 281 283 284 285 286 286 286 285 286 286 287
293 293 293 293 292 292 292 290 289 291 292 290 287 286 286 287 287 285 284 283 279 279 278 277 276 278 280 281 283 283 283 283 284 285 285 286 287 288
291 292 293 293 291 292 291 291 292 293 293 290 287 286 285 284 284 283 282 282 280 280 278 277 275 276 278 280 282 282 282 283 284 285 285 286 287 286
290 290 291 291 290 290 291 291 292 292 292 291 289 286 285 284 282 282 281 279 278 278 279 278 277 276 277 279 280 281 282 283 283 284 284 285 285 285
289 289 290 289 289 289 289 289 289 289 289 289 289 288 287 287 284 284 281 279 276 275 277 277 276 276 278 279 281 282 282 282 284 284 284 283 283 284
288 287 287 288 289 288 288 287 287 287 288 289 289 288 286 286 285 283 282 281 279 278 276 277 277 278 278 279 281 281 281 282 283 283 283 282 283 283
289 288 287 287 287 286 286 286 286 286 288 289 289 287 286 285 285 284 284 283 282 280 278 278 278 278 278 279 280 279 279 281 281 281 283 282 282 283
289 288 287 286 285 284 283 283 284 285 285 286 286 285 285 285 284 285 284 282 281 280 281 279 278 277 277 278 278 277 278 278 279 279 280 280 280 281
287 287 286 285 284 283 283 283 283 283 283 285 284 284 284 284 284 283 284 283 283 282 282 282 279 278 278 278 278 277 276 277 278 278 278 278 278 279
287 286 286 284 282 281 281 282 281 281 280 282 282 283 282 283 284 284 284 284 284 283 282 280 279 278 277 275 276 277 277 276 277 277 279 280 279 279
287 286 286 285 283 282 282 281 281 280 279 280 282 283 283 283 284 284 284 283 282 282 282 279 277 276 276 277 277 277 276 276 276 278 279 280 279 279
288 288 287 286 286 284 283 283 281 280 279 279 280 281 281 281 281 281 282 282 281 282 283 281 280 279 278 277 276 276 276 278 277 277 279 279 279 278
288 288 287 285 283 283 282 282 281 280 280 279 279 279 279 280 280 281 280 279 280 281 280 280 279 278 276 275 274 275 275 276 277 277 279 279 280 278
288 287 287 285 283 282 282 281 281 280 279 279 278 278 278 278 279 279 279 278 278 278 278 277 277 275 273 274 274 273 272 274 274 275 276 278 278 278
288 288 287 286 284 283 282 281 280 279 279 279 279 279 278 277 277 277 277 276 275 275 278 278 277 274 274 274 274 272 271 272 274 274 274 277 278 277
290 289 288 287 285 283 283 282 281 280 280 280 279 278 278 278 277 277 276 274 274 274 275 276 274 272 272 273 274 272 270 270 271 272 272 275 276 275
290 289 289 286 285 285 284 282 281 281 281 280 280 280 279 278 277 276 276 274 274 273 273 273 272 272 272 271 271 271 270 269 268 271 273 274 275 275
290 289 289 288 286 286 286 284 282 280 280 280 281 281 280 278 276 274 274 274 273 272 271 271 271 271 270 270 269 269 268 269 269 269 270 272 274 274
290 289 289 288 287 287 286 285 284 282 280 279 280 280 279 278 276 275 275 274 272 271 270 270 270 270 268 268 267 268 267 268 269 267 267 269 271 272
289 288 288 288 288 287 287 286 285 284 282 280 280 279 278 278 278 277 275 273 271 271 270 270 269 269 268 268 268 267 266 267 269 269 268 268 270 271
289 289 289 288 287 287 286 286 286 285 284 283 281 280 279 278 277 277 275 273 270 271 270 269 268 268 268 269 268 268 267 267 268 268 268 268 269 269
Height
5881 5879 5878 5877 5875 5874 5873 5871 5870 5869 5868 5867 5866 5865 5864 5862 5862 5861 5861 5860 5860 5859 5859 5858 5858 5857 5857 5857 5856 5855 5854 5854 5853 5852 5851 5850 5849 5848
5876 5875 5873 5872 5870 5869 5868 5866 5864 5863 5862 5861 5860 5859 5858 5858 5857 5856 5855 5854 5854 5853 5853 5852 5852 5851 5850 5850 5849 5849 5848 5847 5847 5846 5845 5844 5843 5842
5870 5869 5868 5866 5865 5863 5862 5860 5858 5857 5855 5855 5854 5853 5852 5851 5850 5849 5849 5848 5847 5847 5846 5846 5845 5845 5844 5844 5843 5842 5841 5841 5840 5839 5838 5837 5836 5835
5864 5863 5861 5860 5858 5857 5855 5853 5852 5850 5849 5848 5847 5847 5846 5844 5842 5842 5842 5841 5840 5840 5839 5839 5838 5838 5838 5837 5836 5835 5834 5834 5833 5832 5831 5830 5829 5828
5857 5856 5854 5853 5851 5850 5849 5847 5845 5844 5843 5841 5840 5839 5838 5837 5836 5835 5834 5834 5833 5832 5832 5831 5831 5831 5830 5830 5829 5828 5827 5826 5826 5825 5824 5822 5821 5820
5850 5849 5847 5845 5844 5843 5841 5840 5839 5837 5836 5834 5833 5832 5831 5830 5829 5828 5827 5826 5825 5825 5824 5824 5823 5823 5822 5822 5821 5820 5819 5818 5817 5817 5816 5815 5814 5812
5842 5841 5839 5838 5837 5835 5834 5832 5831 5830 5828 5827 5826 5825 5824 5823 5821 5820 5819 5818 5817 5817 5816 5816 5815 5815 5814 5813 5813 5812 5811 5810 5809 5808 5807 5806 5805 5804
5834 5832 5831 5830 5828 5827 5825 5824 5823 5821 5820 5819 5818 5817 5816 5815 5813 5811 5810 5809 5809 5809 5808 5807 5807 5807 5806 5805 5804 5803 5802 5801 5801 5800 5799 5798 5797 5796
5825 5823 5822 5820 5819 5818 5816 5815 5814 5812 5811 5810 5809 5809 5808 5807 5805 5803 5801 5800 5800 5799 5799 5798 5797 5797 5797 5796 5795 5794 5793 5792 5792 5791 5790 5789 5788 5787
5816 5814 5813 5811 5809 5808 5807 5806 5805 5804 5802 5801 5800 5799 5798 5797 5795 5794 5793 5792 5791 5790 5789 5789 5788 5787 5787 5787 5786 5785 5784 5783 5783 5782 5781 5780 5779 5778
5806 5804 5803 5801 5800 5798 5797 5796 5795 5794 5793 5792 5791 5790 5788 5787 5786 5784 5783 5782 5781 5781 5780 5779 5779 5778 5777 5777 5776 5775 5775 5774 5773 5772 5771 5771 5770 5769
5795 5794 5792 5791 5789 5787 5786 5785 5785 5784 5783 5782 5781 5780 5779 5777 5776 5775 5773 5772 5771 5770 5770 5769 5768 5767 5766 5766 5766 5765 5765 5764 5763 5763 5762 5761 5761 5760
5784 5783 5781 5779 5778 5776 5775 5774 5773 5773 5772 5771 5771 5769 5768 5767 5766 5765 5763 5762 5761 5760 5760 5758 5758 5757 5756 5756 5756 5756 5755 5755 5754 5753 5753 5752 5751 5751
5773 5771 5770 5768 5766 5765 5764 5762 5762 5761 5761 5760 5760 5759 5758 5757 5755 5754 5753 5752 5751 5750 5749 5749 5748 5747 5747 5747 5747 5746 5746 5745 5745 5745 5744 5743 5742 5742
5762 5760 5758 5756 5755 5754 5752 5751 5750 5749 5749 5748 5748 5747 5747 5746 5744 5744 5743 5742 5741 5740 5739 5738 5738 5738 5737 5737 5737 5737 5737 5736 5736 5736 5735 5734 5734 5734
5751 5749 5747 5745 5743 5742 5741 5739 5738 5737 5737 5736 5736 5736 5735 5734 5733 5732 5732 5731 5730 5730 5729 5729 5728 5728 5728 5728 5728 5728 5728 5728 5728 5727 5727 5726 5726 5725
5740 5738 5736 5734 5732 5730 5729 5728 5726 5726 5725 5724 5724 5723 5723 5723 5722 5722 5721 5721 5720 5720 5720 5719 5718 5718 5718 5718 5718 5718 5719 5719 5719 5719 5718 5718 5717 5716
5729 5727 5725 5723 5721 5719 5718 5717 5715 5714 5714 5713 5712 5711 5711 5711 5711 5710 5710 5710 5710 5710 5710 5709 5709 5709 5709 5709 5709 5709 5709 5710 5710 5710 5710 5710 5709 5709
5718 5716 5714 5712 5710 5708 5707 5705 5704 5703 5702 5702 5701 5700 5699 5699 5699 5699 5699 5699 5699 5699 5699 5699 5699 5699 5699 5700 5700 5699 5700 5700 5701 5702 5702 5702 5701 5701
5707 5705 5704 5702 5700 5698 5696 5695 5693 5692 5691 5691 5690 5689 5689 5688 5688 5688 5688 5688 5688 5689 5689 5689 5688 5688 5689 5690 5690 5690 5690 5691 5692 5693 5693 5693 5693 5693
5697 5695 5694 5692 5690 5688 5686 5684 5683 5681 5681 5680 5679 5679 5678 5677 5677 5677 5677 5677 5678 5678 5678 5678 5678 5679 5679 5679 5680 5680 5681 5681 5682 5682 5683 5684 5684 5684
5687 5685 5683 5681 5679 5677 5676 5674 5673 5671 5670 5669 5668 5668 5667 5667 5667 5666 5667 5667 5667 5667 5667 5667 5668 5668 5668 5669 5670 5670 5671 5672 5672 5672 5673 5674 5674 5675
5676 5674 5673 5671 5669 5667 5665 5664 5663 5661 5660 5659 5658 5657 5656 5656 5656 5656 5656 5656 5657 5657 5657 5657 5658 5658 5658 5659 5660 5660 5661 5662 5662 5663 5664 5664 5665 5665